Omaha Offutt, NE

6:56 PM CDT on June 21, 2018 (GMT -0500)
Offutt Air Force Base

Weather History for KOFF - September, 2017

Change the Weather History Date:

Wednesday, September 13, 2017

  Actual Average Record
Temperature  
Mean Temperature 70 °F -  
Max Temperature 88 °F 76 °F 91 °F (2000)
Min Temperature 53 °F 56 °F 35 °F (2014)
Cooling Degree Days 6    
Growing Degree Days 20 (Base 50)    
Moisture  
Dew Point 59 °F    
Average Humidity 85    
Maximum Humidity 100    
Minimum Humidity 35    
Precipitation  
Precipitation 0.00 in - - ()
Sea Level Pressure  
Sea Level Pressure 29.79 in    
Wind  
Wind Speed 2 mph (SSE)    
Max Wind Speed 8 mph    
Max Gust Speed -    
Visibility 7 miles    
Events Fog , Rain    
Averages and records for this station are not official NWS values.
T = Trace of Precipitation, MM = Missing Value Source: NWS Daily Summary

Daily Weather History Graph

Daily Weather History Graph

Search for Another Location

Airport or City:

Astronomy

Sep. 13, 2017 Rise Set
Actual Time 7:02 AM CDT 7:35 PM CDT
Civil Twilight 6:34 AM CDT 8:03 PM CDT
Nautical Twilight 6:01 AM CDT 8:35 PM CDT
Astronomical Twilight 5:28 AM CDT 9:09 PM CDT
Moon 12:05 AM CDT (9/13) 2:55 PM CDT (9/13)
Length of Visible Light 13h 28m
Length of Day
12h 33m
Last Quarter, 45% of the Moon is Illuminated
Sep 13
Last Quarter
Sep 20
New
Sep 27
First Quarter
Oct 5
Full
Oct 12
Last Quarter

Hourly Weather History & Observations

Time (CDT) Temp. Heat Index Dew Point Humidity Pressure Visibility Wind Dir Wind Speed Gust Speed Precip Events Conditions
12:14 AM 59.0 °F - 57.2 °F 94% 29.86 in 7.0 mi Calm Calm - N/A   Clear
12:15 AM 59.0 °F - 57.2 °F 94% 29.85 in 7.0 mi Calm Calm - N/A   Clear
12:16 AM 59.0 °F - 57.2 °F 94% 29.85 in 10.0 mi Calm Calm - N/A   Clear
12:32 AM 59.0 °F - 59.0 °F 100% 29.85 in 10.0 mi WNW 3.5 mph - N/A   Clear
12:56 AM 57.0 °F - 56.1 °F 97% 29.85 in 10.0 mi Calm Calm - N/A   Clear
1:56 AM 55.6 °F - 55.0 °F 98% 29.84 in 10.0 mi Calm Calm - N/A   Clear
2:56 AM 59.7 °F - 59.4 °F 99% 29.83 in 5.0 mi ESE 3.5 mph - N/A   Clear
3:05 AM 59.0 °F - 59.0 °F 100% 29.81 in 3.0 mi Calm Calm - N/A   Clear
3:06 AM 59.0 °F - 59.0 °F 100% 29.81 in 2.2 mi Calm Calm - N/A   Clear
3:08 AM 59.0 °F - 57.2 °F 94% 29.81 in 1.4 mi East 3.5 mph - N/A   Clear
3:10 AM 57.2 °F - 57.2 °F 100% 29.81 in 0.9 mi East 3.5 mph - N/A   Clear
3:20 AM 57.2 °F - 57.2 °F 100% 29.81 in 0.2 mi Calm Calm - N/A Fog Fog
3:22 AM 57.2 °F - 57.2 °F 100% 29.81 in 9.0 mi Calm Calm - N/A   Partly Cloudy
3:37 AM 55.4 °F - 55.4 °F 100% 29.81 in 3.0 mi Calm Calm - N/A   Clear
3:38 AM 55.4 °F - 55.4 °F 100% 29.81 in 2.2 mi Calm Calm - N/A   Clear
3:41 AM 55.4 °F - 55.4 °F 100% 29.81 in 2.8 mi Calm Calm - N/A   Clear
3:44 AM 55.4 °F - 55.4 °F 100% 29.81 in 3.0 mi Calm Calm - N/A   Clear
3:48 AM 55.4 °F - 55.4 °F 100% 29.81 in 3.0 mi Calm Calm - N/A   Clear
3:50 AM 55.4 °F - 55.4 °F 100% 29.81 in 7.0 mi Calm Calm - N/A   Clear
3:56 AM 56.3 °F - 55.8 °F 98% 29.81 in 8.0 mi West 3.5 mph - N/A   Clear
4:01 AM 57.2 °F - 57.2 °F 100% 29.81 in 3.0 mi West 3.5 mph - N/A   Clear
4:02 AM 57.2 °F - 57.2 °F 100% 29.81 in 3.0 mi West 3.5 mph - N/A   Clear
4:03 AM 57.2 °F - 57.2 °F 100% 29.81 in 2.5 mi West 3.5 mph - N/A   Clear
4:05 AM 59.0 °F - 57.2 °F 94% 29.81 in 1.4 mi West 3.5 mph - N/A   Clear
4:06 AM 59.0 °F - 57.2 °F 94% 29.81 in 1.0 mi West 3.5 mph - N/A   Clear
4:07 AM 59.0 °F - 59.0 °F 100% 29.81 in 1.2 mi Calm Calm - N/A   Clear
4:08 AM 59.0 °F - 59.0 °F 100% 29.81 in 1.5 mi Calm Calm - N/A   Clear
4:09 AM 59.0 °F - 59.0 °F 100% 29.81 in 1.9 mi Calm Calm - N/A   Clear
4:11 AM 59.0 °F - 59.0 °F 100% 29.81 in 2.8 mi Calm Calm - N/A   Clear
4:12 AM 59.0 °F - 59.0 °F 100% 29.81 in 3.0 mi Calm Calm - N/A   Clear
4:13 AM 59.0 °F - 59.0 °F 100% 29.81 in 4.0 mi WNW 3.5 mph - N/A   Clear
4:56 AM 60.6 °F - 60.3 °F 99% 29.80 in 10.0 mi WNW 4.6 mph - N/A   Partly Cloudy
5:56 AM 56.1 °F - 55.8 °F 99% 29.81 in 10.0 mi West 5.8 mph - N/A   Clear
6:56 AM 53.8 °F - 53.4 °F 99% 29.82 in 10.0 mi Calm Calm - N/A   Clear
7:56 AM 56.8 °F - 56.5 °F 99% 29.81 in 9.0 mi East 3.5 mph - N/A   Clear
8:56 AM 62.6 °F - 62.6 °F 100% 29.83 in 10.0 mi Calm Calm - N/A   Clear
9:56 AM 71.1 °F - 58.3 °F 64% 29.82 in 10.0 mi West 4.6 mph - N/A   Clear
10:56 AM 76.8 °F - 58.8 °F 54% 29.81 in 10.0 mi South 5.8 mph - N/A   Clear
11:56 AM 81.0 °F 81.0 °F 57.0 °F 44% 29.78 in 10.0 mi SSW 4.6 mph - N/A   Clear
12:56 PM 84.0 °F 83.6 °F 58.5 °F 42% 29.78 in 10.0 mi South 4.6 mph - N/A   Clear
1:56 PM 86.4 °F 85.6 °F 58.5 °F 39% 29.74 in 10.0 mi South 6.9 mph - N/A   Clear
2:56 PM 88.0 °F 86.7 °F 56.8 °F 35% 29.72 in 10.0 mi SSE 4.6 mph - N/A   Clear
3:56 PM 86.0 °F 85.2 °F 58.1 °F 39% 29.71 in 10.0 mi SSW 6.9 mph - N/A   Scattered Clouds
4:56 PM 84.9 °F 84.6 °F 59.2 °F 42% 29.71 in 10.0 mi SSE 5.8 mph - N/A   Partly Cloudy
5:56 PM 82.2 °F 83.5 °F 63.3 °F 53% 29.70 in 10.0 mi ESE 6.9 mph - N/A   Clear
6:56 PM 79.7 °F - 64.9 °F 61% 29.71 in 10.0 mi East 4.6 mph - N/A   Partly Cloudy
7:07 PM 78.8 °F - 64.4 °F 61% 29.71 in 10.0 mi East 4.6 mph - N/A Rain Light Rain
7:14 PM 78.8 °F - 64.4 °F 61% 29.70 in 10.0 mi East 5.8 mph - N/A Rain Light Rain
7:17 PM 78.8 °F - 64.4 °F 61% 29.70 in 10.0 mi East 5.8 mph - N/A   Scattered Clouds
7:56 PM 76.6 °F - 63.5 °F 64% 29.70 in 10.0 mi ESE 5.8 mph - N/A   Scattered Clouds
8:56 PM 75.7 °F - 62.2 °F 63% 29.72 in 10.0 mi ESE 4.6 mph - N/A   Clear
9:56 PM 66.7 °F - 62.4 °F 86% 29.73 in 10.0 mi SE 4.6 mph - N/A   Scattered Clouds
10:56 PM 68.7 °F - 61.5 °F 78% 29.73 in 10.0 mi ESE 6.9 mph - N/A   Partly Cloudy
11:56 PM 68.7 °F - 61.9 °F 79% 29.72 in 10.0 mi East 8.1 mph - N/A   Partly Cloudy